"Time","Value","Approval","myLocation"
"2023-05-12 00:00",15.4459171207705,"Approved","OW436"
"2023-05-12 01:00",15.4439167405905,"Approved","OW436"
"2023-05-12 02:00",15.4439163604106,"Approved","OW436"
"2023-05-12 03:00",15.4459159802306,"Approved","OW436"
"2023-05-12 04:00",15.4489156000507,"Approved","OW436"
"2023-05-12 05:00",15.4539152198707,"Approved","OW436"
"2023-05-12 06:00",15.4579148396908,"Approved","OW436"
"2023-05-12 07:00",15.4609144595108,"Approved","OW436"
"2023-05-12 08:00",15.4679140793309,"Approved","OW436"
"2023-05-12 09:00",15.4709136991509,"Approved","OW436"
"2023-05-12 10:00",15.473913318971,"Approved","OW436"
"2023-05-12 11:00",15.478912938791,"Approved","OW436"
"2023-05-12 12:00",15.4799125586111,"Approved","OW436"
"2023-05-12 13:00",15.4829121784311,"Approved","OW436"
"2023-05-12 14:00",15.4869117982512,"Approved","OW436"
"2023-05-12 15:00",15.4909114180712,"Approved","OW436"
"2023-05-12 16:00",15.4929110378913,"Approved","OW436"
"2023-05-12 17:00",15.4959106577113,"Approved","OW436"
"2023-05-12 18:00",15.4969102775314,"Approved","OW436"
"2023-05-12 19:00",15.4969098973514,"Approved","OW436"
"2023-05-12 20:00",15.4959095171715,"Approved","OW436"
"2023-05-12 21:00",15.4909091369915,"Approved","OW436"
"2023-05-12 22:00",15.4899087568116,"Approved","OW436"
"2023-05-12 23:00",15.4859083766316,"Approved","OW436"
"2023-05-13 00:00",15.4829079964517,"Approved","OW436"
"2023-05-13 01:00",15.4809076162717,"Approved","OW436"
"2023-05-13 02:00",15.4819072360918,"Approved","OW436"
"2023-05-13 03:00",15.4809068559118,"Approved","OW436"
"2023-05-13 04:00",15.4849064757318,"Approved","OW436"
"2023-05-13 05:00",15.4879060955519,"Approved","OW436"
"2023-05-13 06:00",15.4909057153719,"Approved","OW436"
"2023-05-13 07:00",15.494905335192,"Approved","OW436"
"2023-05-13 08:00",15.499904955012,"Approved","OW436"
"2023-05-13 09:00",15.5039045748321,"Approved","OW436"
"2023-05-13 10:00",15.5029041946521,"Approved","OW436"
"2023-05-13 11:00",15.5049038144722,"Approved","OW436"
"2023-05-13 12:00",15.5089034342922,"Approved","OW436"
"2023-05-13 13:00",15.5119030541123,"Approved","OW436"
"2023-05-13 14:00",15.5139026739323,"Approved","OW436"
"2023-05-13 15:00",15.5139022937524,"Approved","OW436"
"2023-05-13 16:00",15.5149019135724,"Approved","OW436"
"2023-05-13 17:00",15.5159015333925,"Approved","OW436"
"2023-05-13 18:00",15.5139011532125,"Approved","OW436"
"2023-05-13 19:00",15.5119007730326,"Approved","OW436"
"2023-05-13 20:00",15.5089003928526,"Approved","OW436"
"2023-05-13 21:00",15.5019000126727,"Approved","OW436"
"2023-05-13 22:00",15.4968996324927,"Approved","OW436"
"2023-05-13 23:00",15.4888992523128,"Approved","OW436"
"2023-05-14 00:00",15.4828988721328,"Approved","OW436"
"2023-05-14 01:00",15.4768984919529,"Approved","OW436"
"2023-05-14 02:00",15.4708981117729,"Approved","OW436"
"2023-05-14 03:00",15.466897731593,"Approved","OW436"
"2023-05-14 04:00",15.468897351413,"Approved","OW436"
"2023-05-14 05:00",15.4708969712331,"Approved","OW436"
"2023-05-14 06:00",15.4698965910531,"Approved","OW436"
"2023-05-14 07:00",15.4698962108731,"Approved","OW436"
"2023-05-14 08:00",15.4718958306932,"Approved","OW436"
"2023-05-14 09:00",15.4748954505132,"Approved","OW436"
"2023-05-14 10:00",15.4748950703333,"Approved","OW436"
"2023-05-14 11:00",15.4728946901533,"Approved","OW436"
"2023-05-14 12:00",15.4708943099734,"Approved","OW436"
"2023-05-14 13:00",15.4668939297934,"Approved","OW436"
"2023-05-14 14:00",15.4668935496135,"Approved","OW436"
"2023-05-14 15:00",15.4678931694335,"Approved","OW436"
"2023-05-14 16:00",15.4648927892536,"Approved","OW436"
"2023-05-14 17:00",15.4618924090736,"Approved","OW436"
"2023-05-14 18:00",15.4558920288937,"Approved","OW436"
"2023-05-14 19:00",15.4498916487137,"Approved","OW436"
"2023-05-14 20:00",15.4448912685338,"Approved","OW436"
"2023-05-14 21:00",15.4408908883538,"Approved","OW436"
"2023-05-14 22:00",15.4368905081739,"Approved","OW436"
"2023-05-14 23:00",15.4298901279939,"Approved","OW436"
"2023-05-15 00:00",15.426889747814,"Approved","OW436"
"2023-05-15 01:00",15.424889367634,"Approved","OW436"
"2023-05-15 02:00",15.4238889874541,"Approved","OW436"
"2023-05-15 03:00",15.4248886072741,"Approved","OW436"
"2023-05-15 04:00",15.4288882270942,"Approved","OW436"
"2023-05-15 05:00",15.4358878469142,"Approved","OW436"
"2023-05-15 06:00",15.4368874667343,"Approved","OW436"
"2023-05-15 07:00",15.4378870865543,"Approved","OW436"
"2023-05-15 08:00",15.4418867063744,"Approved","OW436"
"2023-05-15 09:00",15.4448863261944,"Approved","OW436"
"2023-05-15 10:00",15.4458859460144,"Approved","OW436"
"2023-05-15 11:00",15.4448855658345,"Approved","OW436"
"2023-05-15 12:00",15.4458851856545,"Approved","OW436"
"2023-05-15 13:00",15.4468848054746,"Approved","OW436"
"2023-05-15 14:00",15.4478844252946,"Approved","OW436"
"2023-05-15 15:00",15.4488840451147,"Approved","OW436"
"2023-05-15 16:00",15.4488836649347,"Approved","OW436"
"2023-05-15 17:00",15.4478832847548,"Approved","OW436"
"2023-05-15 18:00",15.4478829045748,"Approved","OW436"
"2023-05-15 19:00",15.4488825243949,"Approved","OW436"
"2023-05-15 20:00",15.4458821442149,"Approved","OW436"
"2023-05-15 21:00",15.444881764035,"Approved","OW436"
"2023-05-15 22:00",15.441881383855,"Approved","OW436"
"2023-05-15 23:00",15.4368810036751,"Approved","OW436"
"2023-05-16 00:00",15.4338806234951,"Approved","OW436"
"2023-05-16 01:00",15.4328802433152,"Approved","OW436"
"2023-05-16 02:00",15.4298798631352,"Approved","OW436"
"2023-05-16 03:00",15.4308794829553,"Approved","OW436"
"2023-05-16 04:00",15.4368791027753,"Approved","OW436"
"2023-05-16 05:00",15.4438787225954,"Approved","OW436"
"2023-05-16 06:00",15.4498783424154,"Approved","OW436"
"2023-05-16 07:00",15.4558779622355,"Approved","OW436"
"2023-05-16 08:00",15.4678775820555,"Approved","OW436"
"2023-05-16 09:00",15.4748772018756,"Approved","OW436"
"2023-05-16 10:00",15.4888768216956,"Approved","OW436"
"2023-05-16 11:00",15.4968764415157,"Approved","OW436"
"2023-05-16 12:00",15.4998760613357,"Approved","OW436"
"2023-05-16 13:00",15.5048756811557,"Approved","OW436"
"2023-05-16 14:00",15.5128753009758,"Approved","OW436"
"2023-05-16 15:00",15.5138749207958,"Approved","OW436"
"2023-05-16 16:00",15.5158745406159,"Approved","OW436"
"2023-05-16 17:00",15.5198741604359,"Approved","OW436"
"2023-05-16 18:00",15.522873780256,"Approved","OW436"
"2023-05-16 19:00",15.523873400076,"Approved","OW436"
"2023-05-16 20:00",15.5208730198961,"Approved","OW436"
"2023-05-16 21:00",15.5158726397161,"Approved","OW436"
"2023-05-16 22:00",15.5118722595362,"Approved","OW436"
"2023-05-16 23:00",15.5028718793562,"Approved","OW436"
"2023-05-17 00:00",15.4978714991763,"Approved","OW436"
"2023-05-17 01:00",15.4928711189963,"Approved","OW436"
"2023-05-17 02:00",15.4908707388164,"Approved","OW436"
"2023-05-17 03:00",15.4948703586364,"Approved","OW436"
"2023-05-17 04:00",15.4968699784565,"Approved","OW436"
"2023-05-17 05:00",15.5028695982765,"Approved","OW436"
"2023-05-17 06:00",15.5068692180966,"Approved","OW436"
"2023-05-17 07:00",15.5108688379166,"Approved","OW436"
"2023-05-17 08:00",15.5018684577367,"Approved","OW436"
"2023-05-17 09:00",15.5078680775567,"Approved","OW436"
"2023-05-17 10:00",15.5098676973768,"Approved","OW436"
"2023-05-17 11:00",15.5098673171968,"Approved","OW436"
"2023-05-17 12:00",15.5088669370169,"Approved","OW436"
"2023-05-17 13:00",15.5108665568369,"Approved","OW436"
"2023-05-17 14:00",15.513866176657,"Approved","OW436"
"2023-05-17 15:00",15.512865796477,"Approved","OW436"
"2023-05-17 16:00",15.510865416297,"Approved","OW436"
"2023-05-17 17:00",15.5058650361171,"Approved","OW436"
"2023-05-17 18:00",15.5018646559371,"Approved","OW436"
"2023-05-17 19:00",15.4988642757572,"Approved","OW436"
"2023-05-17 20:00",15.4938638955772,"Approved","OW436"
"2023-05-17 21:00",15.4888635153973,"Approved","OW436"
"2023-05-17 22:00",15.4818631352173,"Approved","OW436"
"2023-05-17 23:00",15.4728627550374,"Approved","OW436"
"2023-05-18 00:00",15.4688623748574,"Approved","OW436"
"2023-05-18 01:00",15.4628619946775,"Approved","OW436"
"2023-05-18 02:00",15.4588616144975,"Approved","OW436"
"2023-05-18 03:00",15.4588612343176,"Approved","OW436"
"2023-05-18 04:00",15.4598608541376,"Approved","OW436"
"2023-05-18 05:00",15.4658604739577,"Approved","OW436"
"2023-05-18 06:00",15.4688600937777,"Approved","OW436"
"2023-05-18 07:00",15.4738597135978,"Approved","OW436"
"2023-05-18 08:00",15.4768593334178,"Approved","OW436"
"2023-05-18 09:00",15.4788589532379,"Approved","OW436"
"2023-05-18 10:00",15.4828585730579,"Approved","OW436"
"2023-05-18 11:00",15.484858192878,"Approved","OW436"
"2023-05-18 12:00",15.486857812698,"Approved","OW436"
"2023-05-18 13:00",15.4888574325181,"Approved","OW436"
"2023-05-18 14:00",15.4938570523381,"Approved","OW436"
"2023-05-18 15:00",15.4998566721582,"Approved","OW436"
"2023-05-18 16:00",15.5028562919782,"Approved","OW436"
"2023-05-18 17:00",15.5048559117983,"Approved","OW436"
"2023-05-18 18:00",15.5068555316183,"Approved","OW436"
"2023-05-18 19:00",15.5088551514383,"Approved","OW436"
"2023-05-18 20:00",15.5098547712584,"Approved","OW436"
"2023-05-18 21:00",15.5138543910784,"Approved","OW436"
"2023-05-18 22:00",15.5128540108985,"Approved","OW436"
"2023-05-18 23:00",15.5158536307185,"Approved","OW436"
"2023-05-19 00:00",15.5148532505386,"Approved","OW436"
"2023-05-19 01:00",15.5188528703586,"Approved","OW436"
"2023-05-19 02:00",15.5208524901787,"Approved","OW436"
"2023-05-19 03:00",15.5258521099987,"Approved","OW436"
"2023-05-19 04:00",15.5318517298188,"Approved","OW436"
"2023-05-19 05:00",15.5408513496388,"Approved","OW436"
"2023-05-19 06:00",15.5458509694589,"Approved","OW436"
"2023-05-19 07:00",15.5538505892789,"Approved","OW436"
"2023-05-19 08:00",15.560850209099,"Approved","OW436"
"2023-05-19 09:00",15.565849828919,"Approved","OW436"
"2023-05-19 10:00",15.5728494487391,"Approved","OW436"
"2023-05-19 11:00",15.5768490685591,"Approved","OW436"
"2023-05-19 12:00",15.5828486883792,"Approved","OW436"
"2023-05-19 13:00",15.5888483081992,"Approved","OW436"
"2023-05-19 14:00",15.5968479280193,"Approved","OW436"
"2023-05-19 15:00",15.6008475478393,"Approved","OW436"
"2023-05-19 16:00",15.6028471676594,"Approved","OW436"
"2023-05-19 17:00",15.6058467874794,"Approved","OW436"
"2023-05-19 18:00",15.6048464072995,"Approved","OW436"
"2023-05-19 19:00",15.6028460271195,"Approved","OW436"
"2023-05-19 20:00",15.5988456469396,"Approved","OW436"
"2023-05-19 21:00",15.5958452667596,"Approved","OW436"
"2023-05-19 22:00",15.5928448865796,"Approved","OW436"
"2023-05-19 23:00",15.5868445063997,"Approved","OW436"
"2023-05-20 00:00",15.5808441262197,"Approved","OW436"
"2023-05-20 01:00",15.5748437460398,"Approved","OW436"
"2023-05-20 02:00",15.5708433658598,"Approved","OW436"
"2023-05-20 03:00",15.5698429856799,"Approved","OW436"
"2023-05-20 04:00",15.5718426054999,"Approved","OW436"
"2023-05-20 05:00",15.57684222532,"Approved","OW436"
"2023-05-20 06:00",15.57884184514,"Approved","OW436"
"2023-05-20 07:00",15.5818414649601,"Approved","OW436"
"2023-05-20 08:00",15.5878410847801,"Approved","OW436"
"2023-05-20 09:00",15.5938407046002,"Approved","OW436"
"2023-05-20 10:00",15.5938403244202,"Approved","OW436"
"2023-05-20 11:00",15.5978399442403,"Approved","OW436"
"2023-05-20 12:00",15.6008395640603,"Approved","OW436"
"2023-05-20 13:00",15.6048391838804,"Approved","OW436"
"2023-05-20 14:00",15.6078388037004,"Approved","OW436"
"2023-05-20 15:00",15.6148384235205,"Approved","OW436"
"2023-05-20 16:00",15.6148380433405,"Approved","OW436"
"2023-05-20 17:00",15.6138376631606,"Approved","OW436"
"2023-05-20 18:00",15.6138372829806,"Approved","OW436"
"2023-05-20 19:00",15.6108369028007,"Approved","OW436"
"2023-05-20 20:00",15.6088365226207,"Approved","OW436"
"2023-05-20 21:00",15.6048361424408,"Approved","OW436"
"2023-05-20 22:00",15.6008357622608,"Approved","OW436"
"2023-05-20 23:00",15.5948353820809,"Approved","OW436"
"2023-05-21 00:00",15.5888350019009,"Approved","OW436"
"2023-05-21 01:00",15.5868346217209,"Approved","OW436"
"2023-05-21 02:00",15.585834241541,"Approved","OW436"
"2023-05-21 03:00",15.587833861361,"Approved","OW436"
"2023-05-21 04:00",15.5878334811811,"Approved","OW436"
"2023-05-21 05:00",15.5928331010011,"Approved","OW436"
"2023-05-21 06:00",15.5978327208212,"Approved","OW436"
"2023-05-21 07:00",15.6048323406412,"Approved","OW436"
"2023-05-21 08:00",15.6098319604613,"Approved","OW436"
"2023-05-21 09:00",15.6128315802813,"Approved","OW436"
"2023-05-21 10:00",15.6128312001014,"Approved","OW436"
"2023-05-21 11:00",15.6148308199214,"Approved","OW436"
"2023-05-21 12:00",15.6168304397415,"Approved","OW436"
"2023-05-21 13:00",15.6228300595615,"Approved","OW436"
"2023-05-21 14:00",15.6278296793816,"Approved","OW436"
"2023-05-21 15:00",15.6308292992016,"Approved","OW436"
"2023-05-21 16:00",15.6328289190217,"Approved","OW436"
"2023-05-21 17:00",15.6388285388417,"Approved","OW436"
"2023-05-21 18:00",15.6388281586618,"Approved","OW436"
"2023-05-21 19:00",15.6378277784818,"Approved","OW436"
"2023-05-21 20:00",15.6368273983019,"Approved","OW436"
"2023-05-21 21:00",15.6348270181219,"Approved","OW436"
"2023-05-21 22:00",15.634826637942,"Approved","OW436"
"2023-05-21 23:00",15.632826257762,"Approved","OW436"
"2023-05-22 00:00",15.6298258775821,"Approved","OW436"
"2023-05-22 01:00",15.6268254974021,"Approved","OW436"
"2023-05-22 02:00",15.6248251172222,"Approved","OW436"
"2023-05-22 03:00",15.6278247370422,"Approved","OW436"
"2023-05-22 04:00",15.6338243568622,"Approved","OW436"
"2023-05-22 05:00",15.6368239766823,"Approved","OW436"
"2023-05-22 06:00",15.6378235965023,"Approved","OW436"
"2023-05-22 07:00",15.6388232163224,"Approved","OW436"
"2023-05-22 08:00",15.6408228361424,"Approved","OW436"
"2023-05-22 09:00",15.6418224559625,"Approved","OW436"
"2023-05-22 10:00",15.6428220757825,"Approved","OW436"
"2023-05-22 11:00",15.6448216956026,"Approved","OW436"
"2023-05-22 12:00",15.6448213154226,"Approved","OW436"
"2023-05-22 13:00",15.6458209352427,"Approved","OW436"
"2023-05-22 14:00",15.6468205550627,"Approved","OW436"
"2023-05-22 15:00",15.6478201748828,"Approved","OW436"
"2023-05-22 16:00",15.6478197947028,"Approved","OW436"
"2023-05-22 17:00",15.6448194145229,"Approved","OW436"
"2023-05-22 18:00",15.6448190343429,"Approved","OW436"
"2023-05-22 19:00",15.648818654163,"Approved","OW436"
"2023-05-22 20:00",15.651818273983,"Approved","OW436"
"2023-05-22 21:00",15.6538178938031,"Approved","OW436"
"2023-05-22 22:00",15.6538175136231,"Approved","OW436"
"2023-05-22 23:00",15.6548171334432,"Approved","OW436"
"2023-05-23 00:00",15.6518167532632,"Approved","OW436"
"2023-05-23 01:00",15.6528163730833,"Approved","OW436"
"2023-05-23 02:00",15.6538159929033,"Approved","OW436"
"2023-05-23 03:00",15.6528156127234,"Approved","OW436"
"2023-05-23 04:00",15.6558152325434,"Approved","OW436"
"2023-05-23 05:00",15.6568148523635,"Approved","OW436"
"2023-05-23 06:00",15.6618144721835,"Approved","OW436"
"2023-05-23 07:00",15.6668140920035,"Approved","OW436"
"2023-05-23 08:00",15.6638137118236,"Approved","OW436"
"2023-05-23 09:00",15.6618133316436,"Approved","OW436"
"2023-05-23 10:00",15.6608129514637,"Approved","OW436"
"2023-05-23 11:00",15.6618125712837,"Approved","OW436"
"2023-05-23 12:00",15.6628121911038,"Approved","OW436"
"2023-05-23 13:00",15.6628118109238,"Approved","OW436"
"2023-05-23 14:00",15.6648114307439,"Approved","OW436"
"2023-05-23 15:00",15.6648110505639,"Approved","OW436"
"2023-05-23 16:00",15.660810670384,"Approved","OW436"
"2023-05-23 17:00",15.662810290204,"Approved","OW436"
"2023-05-23 18:00",15.6608099100241,"Approved","OW436"
"2023-05-23 19:00",15.6608095298441,"Approved","OW436"
"2023-05-23 20:00",15.6618091496642,"Approved","OW436"
"2023-05-23 21:00",15.6628087694842,"Approved","OW436"
"2023-05-23 22:00",15.6608083893043,"Approved","OW436"
"2023-05-23 23:00",15.6598080091243,"Approved","OW436"
"2023-05-24 00:00",15.6588076289444,"Approved","OW436"
"2023-05-24 01:00",15.6558072487644,"Approved","OW436"
"2023-05-24 02:00",15.6538068685845,"Approved","OW436"
"2023-05-24 03:00",15.6538064884045,"Approved","OW436"
"2023-05-24 04:00",15.6558061082246,"Approved","OW436"
"2023-05-24 05:00",15.6608057280446,"Approved","OW436"
"2023-05-24 06:00",15.6618053478647,"Approved","OW436"
"2023-05-24 07:00",15.6618049676847,"Approved","OW436"
"2023-05-24 08:00",15.6628045875048,"Approved","OW436"
"2023-05-24 09:00",15.6638042073248,"Approved","OW436"
"2023-05-24 10:00",15.6648038271448,"Approved","OW436"
"2023-05-24 11:00",15.6658034469649,"Approved","OW436"
"2023-05-24 12:00",15.6668030667849,"Approved","OW436"
"2023-05-24 13:00",15.668802686605,"Approved","OW436"
"2023-05-24 14:00",15.672802306425,"Approved","OW436"
"2023-05-24 15:00",15.6718019262451,"Approved","OW436"
"2023-05-24 16:00",15.6698015460651,"Approved","OW436"
"2023-05-24 17:00",15.6688011658852,"Approved","OW436"
"2023-05-24 18:00",15.6698007857052,"Approved","OW436"
"2023-05-24 19:00",15.6718004055253,"Approved","OW436"
"2023-05-24 20:00",15.6708000253453,"Approved","OW436"
"2023-05-24 21:00",15.6677996451654,"Approved","OW436"
"2023-05-24 22:00",15.6657992649854,"Approved","OW436"
"2023-05-24 23:00",15.6627988848055,"Approved","OW436"
"2023-05-25 00:00",15.6547985046255,"Approved","OW436"
"2023-05-25 01:00",15.6507981244456,"Approved","OW436"
"2023-05-25 02:00",15.6457977442656,"Approved","OW436"
"2023-05-25 03:00",15.6487973640857,"Approved","OW436"
"2023-05-25 04:00",15.6507969839057,"Approved","OW436"
"2023-05-25 05:00",15.6557966037258,"Approved","OW436"
"2023-05-25 06:00",15.6567962235458,"Approved","OW436"
"2023-05-25 07:00",15.6577958433659,"Approved","OW436"
"2023-05-25 08:00",15.6587954631859,"Approved","OW436"
"2023-05-25 09:00",15.660795083006,"Approved","OW436"
"2023-05-25 10:00",15.660794702826,"Approved","OW436"
"2023-05-25 11:00",15.6617943226461,"Approved","OW436"
"2023-05-25 12:00",15.6607939424661,"Approved","OW436"
"2023-05-25 13:00",15.6627935622861,"Approved","OW436"
"2023-05-25 14:00",15.6647931821062,"Approved","OW436"
"2023-05-25 15:00",15.6657928019262,"Approved","OW436"
"2023-05-25 16:00",15.6677924217463,"Approved","OW436"
"2023-05-25 17:00",15.6637920415663,"Approved","OW436"
"2023-05-25 18:00",15.6637916613864,"Approved","OW436"
"2023-05-25 19:00",15.6627912812064,"Approved","OW436"
"2023-05-25 20:00",15.6597909010265,"Approved","OW436"
"2023-05-25 21:00",15.6567905208465,"Approved","OW436"
"2023-05-25 22:00",15.6517901406666,"Approved","OW436"
"2023-05-25 23:00",15.6457897604866,"Approved","OW436"
"2023-05-26 00:00",15.6407893803067,"Approved","OW436"
"2023-05-26 01:00",15.6377890001267,"Approved","OW436"
"2023-05-26 02:00",15.6377886199468,"Approved","OW436"
"2023-05-26 03:00",15.6407882397668,"Approved","OW436"
"2023-05-26 04:00",15.6437878595869,"Approved","OW436"
"2023-05-26 05:00",15.6477874794069,"Approved","OW436"
"2023-05-26 06:00",15.651787099227,"Approved","OW436"
"2023-05-26 07:00",15.654786719047,"Approved","OW436"
"2023-05-26 08:00",15.6677863388671,"Approved","OW436"
"2023-05-26 09:00",15.6687859586871,"Approved","OW436"
"2023-05-26 10:00",15.6707855785072,"Approved","OW436"
"2023-05-26 11:00",15.6727851983272,"Approved","OW436"
"2023-05-26 12:00",15.6747848181473,"Approved","OW436"
"2023-05-26 13:00",15.6777844379673,"Approved","OW436"
"2023-05-26 14:00",15.6807840577874,"Approved","OW436"
"2023-05-26 15:00",15.6827836776074,"Approved","OW436"
"2023-05-26 16:00",15.6867832974274,"Approved","OW436"
"2023-05-26 17:00",15.6867829172475,"Approved","OW436"
"2023-05-26 18:00",15.6847825370675,"Approved","OW436"
"2023-05-26 19:00",15.6847821568876,"Approved","OW436"
"2023-05-26 20:00",15.6817817767076,"Approved","OW436"
"2023-05-26 21:00",15.6787813965277,"Approved","OW436"
"2023-05-26 22:00",15.6757810163477,"Approved","OW436"
"2023-05-26 23:00",15.6727806361678,"Approved","OW436"
"2023-05-27 00:00",15.6697802559878,"Approved","OW436"
"2023-05-27 01:00",15.6657798758079,"Approved","OW436"
"2023-05-27 02:00",15.6637794956279,"Approved","OW436"
"2023-05-27 03:00",15.668779115448,"Approved","OW436"
"2023-05-27 04:00",15.671778735268,"Approved","OW436"
"2023-05-27 05:00",15.6787783550881,"Approved","OW436"
"2023-05-27 06:00",15.6837779749081,"Approved","OW436"
"2023-05-27 07:00",15.6847775947282,"Approved","OW436"
"2023-05-27 08:00",15.6887772145482,"Approved","OW436"
"2023-05-27 09:00",15.6927768343683,"Approved","OW436"
"2023-05-27 10:00",15.6947764541883,"Approved","OW436"
"2023-05-27 11:00",15.7007760740084,"Approved","OW436"
"2023-05-27 12:00",15.7057756938284,"Approved","OW436"
"2023-05-27 13:00",15.7147753136485,"Approved","OW436"
"2023-05-27 14:00",15.7207749334685,"Approved","OW436"
"2023-05-27 15:00",15.7257745532886,"Approved","OW436"
"2023-05-27 16:00",15.7277741731086,"Approved","OW436"
"2023-05-27 17:00",15.7327737929287,"Approved","OW436"
"2023-05-27 18:00",15.7337734127487,"Approved","OW436"
"2023-05-27 19:00",15.7347730325687,"Approved","OW436"
"2023-05-27 20:00",15.7367726523888,"Approved","OW436"
"2023-05-27 21:00",15.7367722722088,"Approved","OW436"
"2023-05-27 22:00",15.7357718920289,"Approved","OW436"
"2023-05-27 23:00",15.7337715118489,"Approved","OW436"
"2023-05-28 00:00",15.733771131669,"Approved","OW436"
"2023-05-28 01:00",15.733770751489,"Approved","OW436"
"2023-05-28 02:00",15.7347703713091,"Approved","OW436"
"2023-05-28 03:00",15.7397699911291,"Approved","OW436"
"2023-05-28 04:00",15.7437696109492,"Approved","OW436"
"2023-05-28 05:00",15.7487692307692,"Approved","OW436"
"2023-05-28 06:00",15.7537688505893,"Approved","OW436"
"2023-05-28 07:00",15.7607684704093,"Approved","OW436"
"2023-05-28 08:00",15.7617680902294,"Approved","OW436"
"2023-05-28 09:00",15.7637677100494,"Approved","OW436"
"2023-05-28 10:00",15.7667673298695,"Approved","OW436"
"2023-05-28 11:00",15.7707669496895,"Approved","OW436"
"2023-05-28 12:00",15.7747665695096,"Approved","OW436"
"2023-05-28 13:00",15.7767661893296,"Approved","OW436"
"2023-05-28 14:00",15.7807658091497,"Approved","OW436"
"2023-05-28 15:00",15.7857654289697,"Approved","OW436"
"2023-05-28 16:00",15.7887650487898,"Approved","OW436"
"2023-05-28 17:00",15.7887646686098,"Approved","OW436"
"2023-05-28 18:00",15.7877642884299,"Approved","OW436"
"2023-05-28 19:00",15.7857639082499,"Approved","OW436"
"2023-05-28 20:00",15.78276352807,"Approved","OW436"
"2023-05-28 21:00",15.78176314789,"Approved","OW436"
"2023-05-28 22:00",15.77476276771,"Approved","OW436"
"2023-05-28 23:00",15.7697623875301,"Approved","OW436"
"2023-05-29 00:00",15.7657620073501,"Approved","OW436"
"2023-05-29 01:00",15.7607616271702,"Approved","OW436"
"2023-05-29 02:00",15.7587612469902,"Approved","OW436"
"2023-05-29 03:00",15.7587608668103,"Approved","OW436"
"2023-05-29 04:00",15.7587604866303,"Approved","OW436"
"2023-05-29 05:00",15.7637601064504,"Approved","OW436"
"2023-05-29 06:00",15.7647597262704,"Approved","OW436"
"2023-05-29 07:00",15.7647593460905,"Approved","OW436"
"2023-05-29 08:00",15.7647589659105,"Approved","OW436"
"2023-05-29 09:00",15.7667585857306,"Approved","OW436"
"2023-05-29 10:00",15.7707582055506,"Approved","OW436"
"2023-05-29 11:00",15.7727578253707,"Approved","OW436"
"2023-05-29 12:00",15.7747574451907,"Approved","OW436"
"2023-05-29 13:00",15.7777570650108,"Approved","OW436"
"2023-05-29 14:00",15.7797566848308,"Approved","OW436"
"2023-05-29 15:00",15.7807563046509,"Approved","OW436"
"2023-05-29 16:00",15.7837559244709,"Approved","OW436"
"2023-05-29 17:00",15.782755544291,"Approved","OW436"
"2023-05-29 18:00",15.780755164111,"Approved","OW436"
"2023-05-29 19:00",15.7767547839311,"Approved","OW436"